Flag for Germany Weather past 2 weeks in Singen (Hohentwiel), Baden-Württemberg, Germany

Now
58 °F

Overcast.


Feels Like: 58 °F
Forecast: 48 / 66 °F
Wind: 1 mph from Southeast

Location: Konstanz

Current Time: Apr 25, 2015 at 8:32:19 PM

Latest Report: Apr 25, 2015 at 8:00 PM


Visibility: 28 mi

Pressure: 29.87 "Hg

Humidity: 74%

Dew point: 50 °F

Location of Singen (Hohentwiel)Location

Historic Weather in Singen (Hohentwiel) — Graph

°F

Singen (Hohentwiel) temperature yesterday

Maximum temperature yesterday: 67 °F (at 6:00 PM)
Minimum temperature yesterday: 39 °F (at 6:00 AM)
Average temperature yesterday: 53 °F

Past Weeks' High & Low Weather Summary

 TemperatureHumidityPressure
High74 °F (Apr 22, 5:00 PM)99% (Apr 17, 10:00 PM)30.48 "Hg (Apr 17, 10:00 PM)
Low39 °F (Apr 19, 7:00 AM)18% (Apr 22, 7:00 PM)29.85 "Hg (Apr 25, 4:00 PM)
Average55 °F58%30.17 "Hg
* Reported Apr 10 7:00 PM — Apr 25 7:00 PM, Singen (Hohentwiel), Weather by CustomWeather, © 2015

Note: Actual official high and low records may vary slightly from our data, if they occured in-between our weather recording intervals... More about our weather records

Advertising

Singen (Hohentwiel) weather history for previous 24 hours

 ConditionsComfort  
Time TempWeatherWind HumidityBarometerVisibility
7:00 PM
Sat, Apr 25
59 °FOvercast.1 mph72%29.87 "Hg25 mi
6:00 PM60 °FLight rain. Overcast.5 mph66%29.88 "Hg19 mi
5:00 PM62 °FOvercast.7 mph55%29.86 "Hg19 mi
4:00 PM64 °FOvercast.5 mph49%29.85 "Hg25 mi
3:00 PM65 °FOvercast.3 mph47%29.85 "Hg22 mi
2:00 PM65 °FOvercast.2 mph48%29.86 "Hg25 mi
1:00 PM64 °FOvercast.3 mph46%29.88 "Hg25 mi
12:00 PM63 °FOvercast.2 mph47%29.89 "Hg25 mi
11:00 AM59 °FOvercast.1 mph55%29.91 "Hg25 mi
10:00 AM56 °FOvercast.1 mph57%29.92 "Hg28 mi
9:00 AM51 °FOvercast.1 mph65%29.93 "Hg25 mi
8:00 AM48 °FOvercast.2 mph74%29.93 "Hg19 mi
7:00 AM46 °FOvercast.2 mph86%29.93 "Hg19 mi
6:00 AM46 °FPassing clouds.2 mph82%29.90 "Hg19 mi
5:00 AM46 °FClear.1 mph82%29.91 "Hg14 mi
4:00 AM46 °FClear.1 mph79%29.92 "Hg16 mi
3:00 AM47 °FClear.1 mph74%29.92 "Hg25 mi
1:00 AM49 °FClear.2 mph77%29.93 "Hg19 mi
12:00 AM52 °FClear.2 mph65%29.93 "Hg19 mi
11:00 PM
Fri, Apr 24
55 °FClear.2 mph60%29.91 "Hg19 mi
10:00 PM56 °FClear.2 mph61%29.92 "Hg17 mi
9:00 PM59 °FPassing clouds.1 mph47%29.90 "Hg22 mi
8:00 PM64 °FOvercast.2 mph35%29.88 "Hg25 mi
Weather by CustomWeather, © 2015

See weather overviewHow to use our weather pages